Regional Weather Roundup
Issued by NWS

Home | Current Version | Previous Version | Graphics & Text | Print | Product List | Glossary On
Versions: 1 2 3 4 5 6 7 8 9 10 11 12 13 14 15 16 17 18 19 20 21 22 23 24 25 26 27 28 29 30 31 32 33 34 35 36 37 38 39 40 41 42 43 44 45 46 47 48 49 50
000
ASUS43 KLMK 071302
RWRKY
KENTUCKY REGIONAL WEATHER ROUNDUP
NATIONAL WEATHER SERVICE LOUISVILLE KY
900 AM EDT TUE JUL 07 2015

NOTE "FAIR" INDICATES FEW OR NO CLOUDS BELOW 12,000 FEET
WITH NO SIGNIFICANT WEATHER AND/OR OBSTRUCTIONS TO VISIBILITY.

KYZ001>023-026-027-061>063-070>075-071400-
WESTERN AND SOUTH CENTRAL KENTUCKY

CITY           SKY/WX    TMP DP  RH WIND       PRES   REMARKS
PADUCAH        CLOUDY    76  73  91 SW9       29.97S
HENDERSON      CLOUDY    72  70  94 S10G16    29.95S
OWENSBORO      LGT RAIN  74  73  96 SW14      29.99F FOG
HOPKINSVILLE   CLOUDY    74  71  91 SW12      30.04R
BOWLING GREEN  LGT RAIN  76  71  85 SW5       30.06R
GLASGOW        NOT AVBL
$$

KYZ024-025-028>034-038-045-046-053-071400-
NORTH CENTRAL KENTUCKY

CITY           SKY/WX    TMP DP  RH WIND       PRES   REMARKS
LOUISVILLE/SDF PTSUNNY   78  71  79 SW9       29.99S
LOUISVILLE/LOU CLOUDY    78  71  79 SW7       30.00S
FORT KNOX      CLOUDY    76  71  85 SW12      30.00S
$$

KYZ035>037-039>044-047>052-055>060-089>105-071400-
NORTHEAST KENTUCKY

CITY           SKY/WX    TMP DP  RH WIND       PRES   REMARKS
LEXINGTON      CLOUDY    75  71  87 SW13      30.05S
COVINGTON      CLOUDY    75  71  87 S12       30.00S
FRANKFORT      CLOUDY    76  71  85 SW14G21   30.02S
$$

KYZ054-064>069-076>088-106>120-071400-
SOUTHEAST KENTUCKY

CITY           SKY/WX    TMP DP  RH WIND       PRES   REMARKS
JACKSON        MOSUNNY   72  68  87 CALM      30.11S
LONDON         SUNNY     76  67  73 S8        30.11F
SOMERSET       NOT AVBL
MIDDLESBORO    NOT AVBL
MONTICELLO     PTSUNNY   77  74  90 SW9       30.12S
$$



USA.gov is the U.S. government's official web portal to all federal, state and local government web resources and services.